Probability
0 0 0 0 0 0 0 0 0 0 0 0 0 0 0 0 0 0 10 13 23 29 39 48 52 52 58 55 48 55 55 48 48 52 48 52 42 42 39 35 35 32 29 23 23 26 26 26 29
0 0 0 0 0 0 0 0 0 0 0 0 0 0 0 0 0 3 10 19 23 29 32 35 52 48 52 55 48 52 52 52 52 52 48 55 45 48 48 42 45 39 29 29 29 26 32 29 23
0 0 0 0 0 0 0 0 0 0 0 0 0 0 0 0 0 0 13 23 23 29 32 39 52 48 48 42 42 52 52 48 48 52 55 52 42 48 39 42 45 42 39 39 39 32 29 19 13
0 0 0 0 0 0 0 0 0 0 0 0 0 0 0 0 0 0 13 23 26 23 23 39 52 48 48 45 39 42 45 48 48 48 55 55 45 42 39 35 42 42 45 39 29 26 19 16 10
0 0 0 0 0 0 0 0 0 0 0 0 0 0 3 3 6 6 13 16 26 26 26 32 45 48 45 45 45 42 42 45 45 45 52 55 48 35 35 39 35 35 39 35 23 19 16 13 6
0 0 0 0 0 0 0 0 0 0 0 0 0 0 3 6 6 6 13 23 29 23 26 29 42 35 48 45 48 42 42 39 39 42 45 45 45 42 35 35 32 32 32 29 16 19 16 10 6
0 0 0 0 0 0 0 0 0 0 0 0 0 0 6 6 6 6 16 23 29 23 19 23 26 35 32 39 42 39 42 39 39 42 42 42 45 45 39 35 29 29 29 29 19 19 16 10 3
0 0 0 0 0 0 0 0 0 0 0 0 0 3 6 10 10 13 19 23 26 26 19 23 23 23 23 26 29 35 39 39 39 39 32 29 19 16 23 26 29 26 26 23 19 23 19 10 6
0 0 0 0 0 0 0 0 0 0 0 0 0 3 10 10 13 16 16 26 26 26 19 23 23 19 16 16 23 23 26 29 29 26 19 13 10 10 6 6 13 23 23 16 19 16 13 6 0
0 0 0 0 0 0 0 0 0 0 0 0 0 6 10 10 13 19 19 19 26 16 16 19 16 19 16 13 10 10 13 16 16 10 6 6 6 6 3 0 10 10 13 16 16 13 10 3 0
0 0 0 0 0 0 0 0 0 0 0 0 3 3 10 10 10 16 16 16 13 13 6 6 10 13 13 13 10 10 6 10 10 6 6 6 6 3 0 0 0 3 3 3 3 0 0 0 0
0 0 0 0 0 0 0 0 0 0 0 3 3 6 13 13 6 10 10 10 10 6 3 3 3 6 6 10 10 6 6 3 6 6 3 3 3 3 0 0 0 0 0 3 0 0 0 0 0
0 0 0 0 0 0 0 0 0 0 0 3 6 6 10 10 10 10 13 13 10 6 3 3 3 3 6 3 10 13 6 6 6 6 6 3 3 0 0 0 0 3 3 3 0 0 3 0 0
0 0 0 0 0 0 0 0 0 0 0 3 3 10 10 10 10 10 13 13 10 6 6 3 3 3 6 3 3 6 6 6 6 0 6 3 3 0 0 0 0 0 0 3 0 0 0 0 0
0 0 0 0 0 0 0 0 0 0 0 3 3 10 10 6 6 6 6 13 10 6 6 3 3 3 3 3 3 3 6 3 3 0 0 0 0 0 0 0 0 0 0 0 0 0 0 0 0
0 0 0 0 0 0 0 0 0 0 0 0 0 3 6 6 6 6 6 3 3 6 3 3 3 3 3 0 3 3 3 3 3 3 0 0 0 0 0 0 0 0 0 0 0 0 0 0 0
0 0 0 0 0 0 0 0 0 0 0 0 0 3 6 6 6 6 3 3 0 0 3 3 3 0 0 0 0 3 3 3 3 3 0 0 0 0 0 0 0 0 0 0 0 0 0 0 0
0 0 0 0 0 0 0 0 0 0 0 0 0 3 3 6 6 3 3 3 0 0 3 3 3 0 0 0 0 3 3 3 3 3 0 0 0 0 0 0 0 0 0 0 0 0 0 0 0
0 0 0 0 0 0 0 0 0 0 0 0 0 0 0 3 3 3 3 0 0 0 0 3 3 0 0 0 0 3 3 3 3 0 0 0 0 0 0 0 0 0 0 0 0 0 0 0 0
0 0 0 0 0 0 0 0 0 0 0 0 0 0 0 0 3 3 0 0 0 0 0 0 0 0 0 0 0 0 3 3 3 0 0 0 0 0 0 0 0 0 0 0 0 0 0 0 0
0 0 0 0 0 0 0 0 0 0 0 0 0 0 0 0 0 0 0 0 0 0 0 0 0 0 0 0 0 0 3 0 0 0 0 0 0 0 0 0 0 0 0 0 0 0 0 0 0
0 0 0 0 0 0 0 0 0 0 0 0 0 0 0 0 0 3 0 0 0 0 0 0 0 0 0 0 0 0 0 0 0 0 0 0 0 0 0 0 0 0 0 0 0 0 0 0 0
0 0 0 0 0 0 0 0 0 0 0 0 0 0 0 0 0 0 0 0 0 0 0 0 0 0 0 0 0 0 0 0 0 0 0 0 0 0 0 0 0 0 0 0 0 0 0 0 0
0 0 0 0 0 0 0 0 0 0 0 0 0 0 0 0 0 0 0 0 0 0 0 0 0 0 0 0 0 0 0 0 0 0 0 0 0 0 0 0 0 0 0 0 0 0 0 0 0
0 0 0 0 0 0 0 0 0 0 0 0 0 0 0 0 0 0 0 0 0 0 0 0 0 0 0 0 0 0 0 0 0 0 0 0 0 0 0 0 0 0 0 0 0 0 0 0 0
0 0 0 0 0 0 0 0 0 0 0 0 0 0 0 0 0 0 0 0 0 0 0 0 0 0 0 0 0 0 0 0 0 0 0 0 0 0 0 0 0 0 0 0 0 0 0 0 0
0 0 0 0 0 0 0 0 0 0 0 0 0 0 0 0 0 0 0 0 0 0 0 0 0 0 0 0 0 0 0 0 0 0 0 0 0 0 0 0 0 0 0 0 0 0 0 0 0
0 0 0 0 0 0 0 0 0 0 0 0 0 0 0 0 0 0 0 0 0 0 0 0 0 0 0 0 0 0 0 0 0 0 0 0 0 0 0 0 0 0 0 0 0 0 0 0 0
0 0 0 0 0 0 0 0 0 0 0 0 0 0 0 0 0 0 0 0 0 0 0 0 0 0 0 0 0 0 0 0 0 0 0 0 0 0 0 0 0 0 0 0 0 0 0 0 0
0 0 0 0 0 0 0 0 0 0 0 0 0 0 0 0 0 0 0 0 0 0 0 0 0 0 0 0 0 0 0 0 0 0 0 0 0 0 0 0 0 0 0 0 0 0 0 0 0
Height
5805 5806 5807 5808 5809 5810 5811 5814 5815 5817 5819 5820 5822 5823 5825 5827 5828 5832 5832 5833 5835 5836 5838 5839 5841 5842 5843 5845 5846 5848 5850 5851 5852 5854 5855 5856 5857 5859 5860 5861 5862 5863 5864 5865 5866 5866 5867 5868 5869
5801 5802 5803 5803 5804 5805 5808 5810 5811 5813 5815 5816 5818 5820 5821 5822 5824 5826 5828 5829 5831 5833 5835 5836 5838 5840 5841 5842 5844 5846 5847 5849 5850 5852 5853 5854 5856 5857 5858 5860 5861 5862 5863 5864 5865 5866 5867 5867 5868
5796 5797 5798 5798 5799 5801 5804 5805 5807 5808 5810 5812 5814 5816 5817 5819 5820 5822 5824 5826 5828 5830 5831 5833 5835 5836 5838 5840 5841 5843 5845 5846 5848 5849 5851 5852 5854 5855 5857 5858 5859 5860 5862 5863 5864 5865 5866 5867 5867
5790 5792 5792 5794 5795 5797 5799 5801 5802 5804 5806 5808 5810 5811 5813 5815 5817 5818 5820 5822 5824 5826 5828 5830 5831 5833 5835 5836 5838 5840 5842 5843 5845 5847 5848 5850 5852 5853 5855 5856 5857 5859 5860 5861 5862 5863 5864 5865 5866
5784 5785 5787 5788 5790 5793 5794 5795 5797 5799 5801 5803 5805 5806 5808 5810 5812 5814 5816 5817 5819 5821 5823 5825 5827 5829 5831 5833 5835 5836 5838 5840 5842 5844 5845 5847 5849 5850 5852 5854 5855 5856 5858 5859 5860 5862 5863 5864 5865
5778 5779 5781 5782 5785 5787 5789 5790 5791 5793 5795 5797 5799 5801 5803 5805 5807 5809 5811 5813 5815 5817 5819 5821 5823 5825 5827 5829 5830 5832 5834 5836 5838 5840 5842 5844 5846 5847 5849 5851 5853 5854 5855 5857 5858 5859 5860 5862 5863
5771 5773 5774 5777 5779 5781 5783 5784 5785 5786 5788 5791 5793 5795 5797 5799 5802 5804 5806 5808 5810 5812 5814 5816 5818 5820 5822 5824 5826 5828 5830 5832 5834 5836 5838 5840 5842 5844 5846 5848 5849 5851 5853 5854 5856 5857 5858 5859 5860
5763 5766 5767 5770 5772 5775 5776 5777 5778 5780 5782 5784 5786 5788 5791 5793 5795 5798 5800 5802 5804 5806 5809 5811 5813 5815 5817 5819 5821 5824 5826 5827 5830 5832 5834 5836 5838 5840 5842 5844 5846 5848 5849 5851 5853 5854 5855 5857 5858
5755 5758 5760 5764 5765 5767 5768 5769 5771 5772 5775 5777 5778 5781 5784 5786 5788 5791 5793 5795 5798 5800 5803 5805 5807 5809 5811 5813 5816 5818 5820 5823 5825 5827 5829 5831 5834 5836 5838 5840 5842 5844 5846 5847 5849 5851 5852 5853 5855
5746 5749 5753 5756 5757 5758 5759 5761 5763 5764 5766 5769 5771 5773 5776 5778 5780 5783 5786 5788 5790 5793 5796 5798 5801 5803 5805 5807 5810 5812 5814 5817 5819 5822 5824 5826 5829 5831 5833 5835 5837 5839 5841 5843 5845 5847 5848 5850 5851
5737 5741 5745 5746 5747 5749 5750 5752 5754 5756 5758 5760 5762 5765 5768 5770 5772 5774 5777 5779 5782 5785 5788 5791 5793 5796 5797 5800 5803 5805 5808 5810 5813 5816 5818 5821 5823 5825 5828 5830 5832 5834 5836 5839 5840 5842 5844 5846 5847
5728 5732 5734 5736 5737 5738 5739 5741 5744 5746 5749 5751 5753 5756 5758 5760 5762 5765 5767 5770 5773 5776 5779 5782 5785 5788 5790 5793 5795 5798 5800 5803 5806 5809 5812 5814 5817 5819 5822 5824 5826 5829 5831 5833 5835 5837 5839 5841 5843
5719 5722 5723 5725 5726 5728 5728 5731 5733 5736 5738 5740 5742 5745 5748 5750 5752 5754 5757 5760 5763 5767 5770 5773 5776 5779 5782 5784 5786 5790 5793 5796 5799 5802 5804 5807 5810 5813 5815 5818 5820 5822 5825 5827 5829 5832 5834 5836 5838
5709 5711 5712 5714 5715 5716 5717 5720 5722 5725 5727 5729 5732 5735 5737 5739 5741 5743 5746 5749 5753 5756 5759 5763 5766 5769 5773 5776 5779 5782 5784 5787 5791 5794 5797 5799 5803 5806 5808 5811 5813 5816 5818 5821 5823 5825 5828 5830 5832
5698 5699 5700 5702 5704 5705 5706 5709 5712 5713 5715 5718 5721 5723 5725 5727 5729 5732 5735 5738 5742 5745 5749 5752 5756 5759 5762 5766 5769 5773 5775 5778 5782 5785 5788 5791 5794 5798 5801 5803 5806 5809 5811 5814 5816 5819 5821 5823 5826
5687 5687 5689 5692 5693 5693 5696 5697 5700 5701 5703 5706 5708 5710 5713 5715 5718 5720 5724 5727 5730 5734 5738 5741 5745 5748 5751 5755 5759 5762 5766 5769 5772 5776 5779 5782 5785 5788 5792 5795 5798 5801 5804 5806 5809 5812 5814 5817 5819
5676 5677 5678 5681 5682 5682 5683 5685 5688 5689 5691 5693 5696 5698 5700 5703 5706 5708 5712 5715 5719 5722 5725 5729 5733 5736 5740 5743 5747 5751 5755 5758 5762 5765 5769 5772 5775 5779 5782 5786 5789 5793 5796 5799 5801 5804 5807 5809 5812
5667 5667 5668 5670 5671 5672 5673 5674 5676 5677 5679 5681 5683 5685 5688 5690 5693 5696 5699 5703 5706 5710 5713 5717 5720 5724 5728 5731 5735 5740 5743 5747 5751 5754 5758 5761 5765 5769 5772 5776 5780 5783 5786 5790 5793 5795 5799 5801 5804
5659 5659 5659 5660 5661 5662 5662 5664 5665 5666 5667 5669 5671 5674 5676 5678 5681 5684 5687 5690 5694 5697 5701 5704 5707 5711 5714 5719 5723 5728 5731 5735 5739 5742 5746 5749 5753 5757 5761 5765 5769 5773 5776 5780 5783 5786 5789 5792 5795
5651 5651 5651 5652 5652 5653 5653 5654 5655 5656 5657 5658 5660 5662 5664 5666 5669 5672 5675 5678 5681 5684 5687 5691 5694 5697 5701 5705 5710 5715 5719 5723 5726 5730 5734 5737 5741 5745 5749 5753 5758 5762 5766 5769 5773 5777 5780 5783 5786
5644 5643 5643 5643 5644 5644 5644 5645 5645 5645 5646 5647 5649 5651 5653 5655 5657 5660 5662 5665 5668 5671 5674 5677 5680 5684 5687 5691 5696 5701 5705 5709 5713 5717 5721 5725 5729 5732 5737 5741 5745 5750 5754 5758 5762 5766 5770 5773 5776
5636 5636 5636 5635 5635 5635 5635 5634 5635 5635 5636 5637 5639 5640 5642 5644 5645 5648 5650 5652 5655 5658 5661 5664 5667 5670 5674 5678 5682 5686 5691 5695 5700 5704 5708 5711 5715 5720 5724 5728 5732 5737 5742 5747 5751 5754 5758 5762 5765
5630 5629 5629 5628 5627 5626 5626 5625 5626 5626 5627 5628 5630 5631 5632 5633 5634 5636 5638 5640 5642 5645 5648 5651 5654 5657 5661 5665 5669 5673 5677 5681 5686 5691 5695 5698 5702 5707 5711 5715 5719 5724 5729 5734 5738 5742 5746 5750 5754
5623 5623 5622 5621 5619 5619 5619 5617 5618 5618 5618 5620 5621 5621 5622 5623 5624 5625 5627 5629 5631 5633 5636 5639 5642 5645 5649 5652 5656 5660 5664 5668 5673 5678 5682 5686 5690 5694 5698 5702 5706 5711 5715 5721 5725 5730 5734 5738 5742
5618 5616 5614 5612 5611 5611 5611 5609 5610 5610 5610 5611 5611 5612 5612 5613 5614 5615 5616 5618 5620 5622 5624 5627 5630 5634 5637 5640 5644 5647 5651 5655 5660 5663 5668 5673 5677 5681 5685 5689 5693 5698 5702 5707 5712 5716 5721 5725 5729
5612 5610 5608 5606 5604 5604 5604 5602 5604 5603 5602 5602 5602 5603 5603 5603 5603 5604 5605 5607 5609 5611 5613 5615 5618 5622 5625 5629 5632 5635 5638 5642 5646 5650 5655 5659 5664 5668 5671 5676 5680 5685 5689 5693 5698 5703 5708 5712 5716
5606 5604 5603 5600 5598 5597 5597 5596 5596 5596 5595 5594 5594 5594 5594 5593 5593 5594 5595 5596 5598 5600 5602 5604 5607 5610 5613 5616 5620 5622 5625 5629 5633 5636 5641 5645 5650 5654 5658 5662 5666 5671 5676 5680 5685 5689 5694 5699 5703
5601 5598 5597 5594 5591 5590 5590 5589 5589 5588 5587 5587 5586 5585 5585 5584 5584 5584 5585 5586 5587 5589 5591 5593 5596 5598 5601 5604 5607 5610 5613 5616 5620 5623 5627 5631 5636 5640 5645 5649 5653 5658 5663 5667 5671 5676 5681 5685 5690
5597 5594 5591 5589 5587 5584 5583 5585 5582 5581 5580 5579 5578 5577 5576 5575 5575 5575 5575 5576 5577 5579 5580 5582 5584 5587 5589 5592 5594 5597 5599 5602 5606 5610 5614 5618 5622 5627 5631 5636 5640 5645 5649 5654 5658 5663 5667 5672 5676
5591 5589 5586 5585 5582 5579 5577 5580 5576 5574 5572 5571 5570 5569 5568 5567 5567 5566 5566 5567 5567 5568 5570 5571 5573 5575 5577 5579 5581 5583 5586 5588 5592 5597 5601 5605 5609 5614 5618 5623 5627 5631 5636 5640 5645 5649 5654 5658 5662
Wind_Speed
19 20 20 21 22 23 22 21 21 21 22 22 22 22 22 23 24 24 21 20 20 19 19 19 19 18 17 17 17 17 16 16 16 16 15 14 13 12 11 11 10 9 9 8 8 7 7 7 6
21 21 22 23 24 24 23 22 22 22 21 22 23 23 23 24 25 24 23 22 22 21 21 20 20 20 19 18 18 18 18 18 17 17 17 16 15 14 13 12 12 11 10 10 9 8 8 8 7
22 22 23 24 25 24 23 23 23 24 23 23 23 24 24 25 25 25 24 23 23 23 23 22 22 21 21 20 20 19 19 19 19 19 18 18 17 16 15 14 13 13 12 11 10 9 9 8 8
24 24 25 25 25 23 23 24 24 24 24 24 24 25 25 25 25 25 25 25 24 24 24 24 23 23 23 22 22 21 20 20 20 20 20 19 19 18 17 16 15 14 13 13 12 11 10 10 10
25 26 26 26 25 24 24 25 26 25 25 26 25 26 26 26 26 26 26 26 26 25 25 26 25 25 24 24 23 23 22 22 22 21 21 21 20 20 19 18 17 16 15 14 13 12 12 11 11
27 28 28 27 26 25 26 26 27 27 27 27 27 28 28 27 28 28 28 28 28 27 27 27 27 27 26 26 25 24 24 23 23 23 23 22 22 22 21 21 19 18 17 16 15 14 14 13 13
29 30 30 29 28 28 27 28 28 28 29 28 29 29 29 29 29 30 30 30 30 29 29 29 29 29 28 28 27 26 26 25 25 25 25 24 24 23 23 22 22 21 19 18 17 16 16 15 14
30 31 31 30 30 29 29 30 30 30 30 30 31 31 30 30 31 32 32 32 32 31 31 31 31 31 30 30 30 29 28 28 27 27 27 26 26 25 24 24 23 23 22 21 20 18 18 17 16
32 32 32 31 31 30 31 32 32 33 32 32 33 33 32 32 33 33 34 34 34 34 33 33 33 33 32 32 32 32 31 30 30 29 28 28 27 27 26 26 25 25 24 23 22 21 20 19 18
33 33 32 32 33 33 34 34 34 35 35 34 35 35 35 35 35 35 36 36 36 36 36 35 35 35 35 34 34 34 34 33 32 31 30 29 29 28 28 28 27 27 27 26 25 23 22 21 20
34 34 33 34 35 35 36 37 37 37 36 36 37 37 37 37 38 38 38 38 39 38 38 38 37 37 37 36 36 36 36 35 34 34 33 32 31 30 29 29 28 28 28 27 27 25 24 23 22
35 35 36 37 37 37 38 39 39 39 38 38 39 39 39 39 40 41 40 40 40 40 40 40 39 40 39 38 38 37 38 37 36 36 35 34 33 32 31 31 30 29 29 29 29 27 26 25 24
35 36 37 38 38 39 41 40 41 40 40 40 40 40 40 41 42 42 43 42 42 42 42 42 42 42 42 41 41 40 39 40 39 38 37 37 36 35 34 32 32 31 31 30 30 30 28 27 26
36 37 38 39 40 41 42 41 41 41 41 42 42 42 42 42 43 43 44 44 44 43 43 43 43 43 43 43 43 42 41 41 41 41 40 39 38 37 37 35 34 33 32 32 32 31 30 29 28
36 38 39 39 40 41 42 42 42 42 43 43 43 43 43 43 43 44 45 45 45 45 44 45 45 45 45 45 44 44 43 43 42 42 42 41 41 40 39 38 36 35 34 33 33 32 32 31 30
35 37 38 38 39 40 42 42 42 43 43 43 44 44 44 44 44 45 45 45 46 46 46 46 46 47 46 46 46 46 45 44 44 43 43 43 43 42 42 41 39 37 36 35 35 34 34 33 32
33 35 36 36 37 39 41 42 42 43 43 43 43 44 45 45 46 46 46 46 46 47 47 47 47 48 48 47 46 47 47 47 46 45 45 44 45 44 44 43 42 41 40 38 37 36 36 35 34
32 33 34 35 36 37 39 40 41 41 42 42 43 43 43 45 46 46 46 46 46 47 48 48 49 49 49 49 48 48 48 48 49 48 47 47 46 46 46 45 44 43 43 42 40 39 38 38 37
30 31 33 34 35 37 38 38 39 39 41 41 42 41 42 43 44 45 46 47 47 47 48 48 50 50 51 50 50 49 49 50 50 49 49 48 48 48 47 47 47 46 45 44 43 42 41 40 40
29 29 31 32 32 35 37 38 38 38 39 39 40 40 41 42 42 43 45 47 48 48 48 50 50 50 51 51 51 51 51 51 51 51 51 50 50 49 49 48 48 48 47 46 46 45 44 43 42
28 28 29 31 31 33 35 36 37 37 37 38 38 39 41 41 42 42 43 44 46 47 47 48 49 50 51 51 52 52 52 51 51 51 51 52 52 51 50 50 50 49 49 48 48 47 47 45 44
27 27 28 29 29 30 31 33 34 35 35 36 37 38 40 40 41 41 42 42 44 45 46 47 48 49 51 51 52 52 51 52 52 52 52 52 53 53 52 51 51 50 50 50 50 49 49 47 46
26 26 27 28 29 29 30 32 32 33 33 34 36 37 38 39 40 40 41 43 44 45 46 46 46 47 49 51 52 52 52 52 53 53 52 52 53 53 52 50 51 51 51 51 51 50 50 50 49
25 26 26 27 28 28 27 30 32 32 32 33 34 36 37 37 39 40 42 42 43 44 45 46 47 47 47 49 51 52 52 52 53 54 55 54 53 53 53 53 52 52 52 52 52 51 51 51 50
24 24 24 25 26 27 27 30 31 31 33 33 34 35 37 37 38 39 41 42 42 43 45 46 47 48 48 48 49 52 53 53 53 53 54 54 54 54 54 55 54 53 52 51 52 53 53 53 52
24 24 24 24 26 27 27 29 29 30 32 32 33 34 35 36 37 37 38 40 40 42 44 45 46 47 48 49 50 51 52 53 54 54 54 54 54 54 54 56 56 54 54 53 53 52 53 54 53
24 24 25 26 27 27 28 29 30 30 31 32 33 33 34 35 37 37 37 38 40 41 44 45 46 47 48 49 50 51 51 53 53 53 54 54 54 54 54 55 56 55 54 54 54 55 54 54 54
24 24 24 25 28 29 27 28 29 29 30 31 31 32 33 34 35 35 37 37 38 40 42 43 44 45 47 48 49 50 50 51 51 52 53 53 54 54 53 54 55 55 55 54 54 53 53 53 54
24 24 24 25 27 28 28 27 27 28 29 31 32 32 32 33 33 34 35 36 37 38 40 42 43 44 45 46 48 49 49 51 53 52 53 53 53 54 53 54 55 55 55 54 54 53 52 52 52
25 25 25 25 26 28 29 29 27 28 29 30 31 31 32 32 33 33 34 36 37 38 39 41 42 43 45 46 47 48 48 49 52 53 52 54 54 53 54 54 54 55 55 55 55 54 53 53 52
Wind_Direction
254 253 252 250 250 249 248 248 246 244 242 240 239 239 240 240 240 242 241 240 237 236 235 235 233 232 232 232 228 225 222 220 219 218 217 216 215 215 214 212 210 209 209 209 209 204 199 195 187
255 253 252 251 250 250 249 249 247 247 245 242 241 240 239 240 240 242 241 240 239 238 237 236 234 233 232 232 230 227 226 224 223 222 222 222 221 221 220 219 219 218 216 214 214 211 209 205 205
255 254 252 252 252 253 253 252 250 247 246 244 242 241 241 241 241 242 242 241 240 239 237 236 235 233 232 233 232 230 229 227 226 225 225 225 225 225 225 224 224 224 223 221 221 219 216 214 211
254 254 253 253 253 254 254 253 251 249 247 246 244 242 241 241 242 241 241 241 240 240 239 237 236 235 233 232 232 231 230 229 229 228 227 228 228 228 228 227 227 227 227 226 226 225 222 221 220
254 253 253 253 255 255 254 254 252 251 248 246 245 245 243 242 241 241 241 241 240 239 239 239 238 237 235 234 234 233 232 232 231 230 230 230 231 231 231 230 230 230 230 230 229 228 226 227 227
254 254 254 255 256 255 255 255 253 251 250 248 247 246 245 243 241 241 241 241 241 240 239 239 239 239 237 236 236 236 234 234 233 232 232 232 233 233 233 234 233 232 232 232 233 233 231 231 232
255 255 256 257 257 256 255 255 255 253 251 250 249 248 246 245 243 242 242 242 241 241 240 239 239 239 239 238 236 237 237 236 235 235 235 235 235 235 235 235 234 234 234 234 235 235 235 235 235
255 256 256 257 257 257 257 255 254 253 252 251 250 249 247 246 245 244 243 242 242 242 241 241 240 239 239 239 239 238 238 238 238 237 237 237 237 237 237 237 236 236 236 237 237 237 238 238 238
256 256 257 258 259 258 257 256 255 254 252 251 251 251 249 248 247 246 245 244 243 243 243 242 242 241 241 240 240 239 239 239 240 240 240 239 239 239 240 240 240 239 238 239 239 240 240 240 240
256 257 258 259 259 259 258 257 256 254 252 251 251 251 251 250 249 248 247 245 245 244 244 243 243 243 242 241 241 241 240 239 240 240 241 241 241 241 241 242 242 241 240 240 241 242 242 242 243
257 258 258 258 259 260 259 257 256 255 254 252 252 251 252 251 250 249 247 246 245 245 244 243 243 243 243 242 242 242 241 240 240 240 241 241 242 242 242 243 243 243 241 241 241 242 243 243 243
258 259 259 259 259 260 259 258 256 255 255 254 252 251 251 251 251 249 248 247 246 245 244 244 244 244 244 244 243 243 242 240 240 240 241 242 243 243 243 243 243 243 243 242 241 242 243 244 244
260 260 259 259 259 259 258 257 257 256 255 254 254 253 252 252 251 250 249 248 247 246 245 244 244 244 244 243 243 244 243 242 241 241 241 242 243 244 244 243 243 243 243 242 242 243 243 244 244
262 262 261 260 260 259 259 258 258 257 256 255 255 255 254 253 252 250 249 247 246 246 245 245 244 244 244 243 244 245 244 243 243 242 242 242 243 243 244 244 243 243 243 242 242 243 242 244 245
264 263 262 261 260 260 260 258 258 258 257 256 256 255 254 252 251 250 249 247 246 246 245 245 244 244 244 244 244 244 244 244 243 243 242 242 243 243 244 244 244 244 244 244 244 244 243 244 245
266 265 263 261 261 261 260 260 260 260 259 258 256 254 252 251 250 249 248 247 247 246 246 246 245 245 245 244 244 243 244 244 243 243 243 243 243 243 243 244 244 244 245 245 245 245 245 245 246
270 268 266 263 263 262 261 260 260 261 260 258 256 254 253 251 250 249 248 247 247 246 246 246 246 246 245 244 243 243 244 244 243 243 242 243 244 244 244 243 244 244 245 246 246 245 245 246 247
275 272 268 265 263 263 262 262 262 262 261 258 256 255 254 252 250 249 248 247 247 247 247 247 247 246 246 245 244 244 243 244 244 244 243 243 244 244 244 243 243 244 245 245 246 246 246 247 247
279 275 271 267 265 264 264 263 262 261 260 258 256 255 253 252 249 248 248 248 247 247 247 247 247 246 245 245 244 244 244 244 244 244 243 244 244 245 245 245 243 243 244 244 245 246 247 248 248
282 277 273 269 269 268 265 264 262 261 260 258 256 255 254 252 251 249 249 249 248 247 247 247 246 246 245 245 245 244 244 244 244 244 244 245 245 245 245 244 244 244 244 244 245 246 248 248 249
283 280 277 273 271 271 268 266 263 261 259 258 256 255 254 254 252 250 250 250 248 247 246 247 246 246 245 244 244 244 244 244 244 244 244 244 245 246 246 246 245 245 244 244 245 246 247 248 249
285 282 279 276 274 272 270 269 265 261 260 259 257 256 255 255 254 252 251 251 249 247 247 246 245 245 244 243 243 244 244 243 242 243 243 244 244 245 246 246 245 246 245 244 244 245 246 247 248
289 285 282 278 276 274 273 270 268 263 262 261 259 258 257 257 255 254 252 250 250 248 247 247 246 246 245 245 244 245 244 243 242 242 243 244 244 245 245 246 245 244 244 245 245 245 246 247 247
294 288 284 281 278 277 277 273 269 265 263 265 263 262 260 259 258 255 253 252 250 249 248 247 247 246 246 245 245 245 245 244 245 244 244 244 245 245 245 246 245 244 244 245 244 245 246 247 248
296 290 287 285 280 278 278 275 272 269 267 268 266 264 261 259 259 257 255 253 252 250 249 248 247 247 247 246 246 246 246 246 246 245 244 244 245 245 245 246 246 245 245 245 244 245 246 247 248
298 292 288 284 283 280 280 276 273 272 271 270 269 266 264 261 260 259 256 254 252 251 250 249 248 248 247 247 247 246 247 247 247 246 246 245 245 246 245 246 246 246 246 246 245 245 246 247 248
299 296 290 285 283 283 283 279 275 273 274 274 272 269 266 265 263 261 258 256 254 253 252 251 250 249 249 249 249 248 248 248 248 247 247 246 245 246 246 246 246 247 247 248 247 245 246 247 247
299 300 294 288 284 284 286 285 283 279 276 275 274 271 268 266 265 263 260 258 255 254 253 251 250 250 251 250 249 248 248 247 248 247 245 245 245 245 245 246 247 247 248 248 248 246 246 247 248
300 298 294 288 284 284 286 286 286 285 282 278 276 274 272 270 268 264 261 259 258 257 256 254 252 252 252 251 250 249 249 247 246 246 245 245 245 245 246 246 246 247 247 247 246 247 246 246 248
300 301 298 293 289 286 287 289 289 287 286 282 278 275 274 273 270 268 264 262 260 258 256 255 254 254 253 253 251 249 249 249 248 247 246 245 245 245 246 246 247 247 246 246 248 249 248 247 247